N1JOT Weather Reports


Display with metric or nautical units.
time (UTC)temp
F
wind
direction
speed
MPH
gust
MPH
rain 1hr
in
rain 24hr
in
rain mn
in
humidity
%
barometer
mb
20260509235559 53 0 0.0 2.0 0.01 0.40 0.40 93 1013.9
20260509235059 53 0 0.0 1.0 0.02 0.40 0.40 93 1014.0
20260509234601 53 0 0.0 1.0 0.02 0.40 0.40 93 1013.9
20260509234101 53 0 0.0 2.0 0.02 0.40 0.40 93 1014.0
20260509233559 53 0 0.0 2.0 0.02 0.40 0.40 93 1014.0
20260509233104 53 0 0.0 2.0 0.03 0.40 0.40 93 1014.0
20260509232558 53 0 0.0 2.0 0.03 0.40 0.40 93 1013.9
20260509232058 53 0 0.0 2.0 0.04 0.39 0.39 93 1013.9
20260509231601 53 0 0.0 3.0 0.06 0.39 0.39 93 1013.8
20260509231100 53 0 0.0 3.0 0.09 0.39 0.39 93 1013.8
20260509230604 54 167 0.0 3.0 0.11 0.39 0.39 93 1013.8
20260509230100 54 0 0.0 3.0 0.12 0.39 0.39 92 1013.8
20260509225600 54 0 0.0 3.0 0.14 0.39 0.39 92 1013.8
20260509225057 54 184 0.0 3.0 0.15 0.38 0.38 92 1013.9
20260509224600 54 0 0.0 3.0 0.16 0.38 0.38 92 1013.9
20260509224058 54 0 0.0 3.0 0.18 0.38 0.38 92 1013.8
20260509223558 54 0 0.0 3.0 0.19 0.38 0.38 92 1013.7
20260509223102 54 0 1.0 6.0 0.19 0.37 0.37 92 1013.7
20260509222557 54 0 0.0 6.0 0.20 0.37 0.37 92 1013.7
20260509222100 54 184 1.0 6.0 0.18 0.35 0.35 92 1013.7
20260509221559 54 0 0.0 4.0 0.16 0.33 0.33 92 1013.5
20260509221100 54 149 0.0 5.0 0.13 0.30 0.30 92 1013.6
20260509220600 54 163 0.0 5.0 0.11 0.28 0.28 92 1013.4
20260509215600 54 0 0.0 5.0 0.08 0.25 0.25 91 1013.4
20260509215058 54 189 0.0 3.0 0.07 0.23 0.23 91 1013.3
20260509214558 54 0 0.0 3.0 0.07 0.22 0.22 91 1013.2
20260509214057 54 0 0.0 3.0 0.06 0.20 0.20 91 1013.3
20260509213558 54 0 0.0 7.0 0.07 0.19 0.19 90 1013.3
20260509213102 54 0 0.0 7.0 0.10 0.18 0.18 91 1013.4
20260509212557 54 184 1.0 3.0 0.11 0.17 0.17 90 1013.4
20260509212100 54 0 0.0 5.0 0.13 0.17 0.17 90 1013.3
20260509211606 54 0 0.0 5.0 0.13 0.17 0.17 90 1013.2
20260509211058 54 0 1.0 5.0 0.13 0.17 0.17 90 1013.2
20260509210558 55 182 0.0 2.0 0.13 0.17 0.17 90 1013.1
20260509210056 55 193 0.0 2.0 0.13 0.17 0.17 89 1013.0
20260509205557 55 0 0.0 6.0 0.13 0.17 0.17 89 1013.0
20260509205057 55 188 1.0 6.0 0.12 0.16 0.16 88 1013.0
20260509204558 55 0 1.0 7.0 0.11 0.15 0.15 88 1012.9
20260509204058 55 174 2.0 7.0 0.10 0.14 0.14 86 1012.8
20260509203557 55 207 2.0 8.0 0.08 0.12 0.12 85 1012.8
20260509203116 56 204 2.0 10.0 0.04 0.08 0.08 83 1012.9
20260509202557 56 173 2.0 10.0 0.02 0.06 0.06 80 1012.9
20260509202100 58 219 2.0 8.0 0.00 0.04 0.04 77 1012.9
20260509201604 58 190 2.0 7.0 0.00 0.04 0.04 78 1012.9
20260509201058 59 157 1.0 5.0 0.00 0.04 0.04 77 1012.8
20260509200600 59 191 2.0 5.0 0.00 0.04 0.04 74 1012.8
20260509200110 60 199 1.0 9.0 0.00 0.04 0.04 73 1012.8
20260509195558 60 185 3.0 9.0 0.00 0.04 0.04 72 1012.7
20260509195059 60 0 2.0 9.0 0.00 0.04 0.04 71 1012.7
20260509194559 60 194 3.0 9.0 0.00 0.04 0.04 70 1012.8
20260509194100 60 0 2.0 9.0 0.00 0.04 0.04 69 1012.6
20260509193558 60 168 2.0 9.0 0.00 0.04 0.04 69 1012.7
20260509193115 60 175 1.0 5.0 0.00 0.04 0.04 69 1012.7
20260509192556 60 98 1.0 7.0 0.00 0.04 0.04 69 1012.7
20260509192059 60 277 0.0 7.0 0.00 0.04 0.04 70 1012.7
20260509191604 60 60 1.0 8.0 0.00 0.04 0.04 69 1012.8
20260509191100 61 253 2.0 8.0 0.00 0.04 0.04 69 1012.8
20260509190601 61 277 2.0 10.0 0.00 0.04 0.04 69 1012.7
20260509190106 60 209 2.0 10.0 0.00 0.04 0.04 69 1012.7
20260509185558 60 0 2.0 9.0 0.00 0.04 0.04 70 1012.7
20260509185059 61 171 2.0 9.0 0.00 0.04 0.04 70 1012.9
20260509184608 61 254 1.0 7.0 0.00 0.04 0.04 70 1012.8
20260509184058 60 0 0.0 7.0 0.00 0.04 0.04 72 1012.9
20260509183558 60 163 2.0 7.0 0.00 0.04 0.04 70 1012.8
20260509183102 60 76 2.0 7.0 0.00 0.04 0.04 70 1012.9
20260509182558 60 97 1.0 7.0 0.00 0.04 0.04 70 1012.8
20260509182100 60 188 2.0 7.0 0.00 0.04 0.04 69 1012.8
20260509181610 60 215 1.0 5.0 0.00 0.04 0.04 72 1012.9
20260509181100 59 200 1.0 6.0 0.00 0.04 0.04 73 1012.9
20260509180558 59 281 0.0 6.0 0.00 0.04 0.04 75 1013.0
20260509180108 58 86 1.0 6.0 0.00 0.04 0.04 77 1013.0
20260509175559 57 183 1.0 3.0 0.00 0.04 0.04 77 1013.2
20260509175059 57 0 0.0 3.0 0.00 0.04 0.04 77 1013.0
20260509174603 57 0 0.0 5.0 0.00 0.04 0.04 78 1012.9
20260509174058 57 0 2.0 5.0 0.00 0.04 0.04 77 1013.1
20260509173600 57 140 1.0 3.0 0.00 0.04 0.04 77 1013.8
20260509173108 57 159 0.0 7.0 0.00 0.04 0.04 77 1013.9
20260509172558 57 194 0.0 7.0 0.00 0.04 0.04 75 1013.9
20260509172057 57 0 0.0 4.0 0.00 0.04 0.04 74 1014.0
20260509171627 57 157 1.0 7.0 0.00 0.04 0.04 72 1013.8
20260509171059 58 215 1.0 7.0 0.00 0.04 0.04 71 1013.9
20260509170600 58 238 1.0 5.0 0.00 0.04 0.04 70 1013.9
20260509170057 59 196 1.0 9.0 0.00 0.04 0.04 70 1013.8
20260509165559 59 0 1.0 9.0 0.00 0.04 0.04 69 1013.6
20260509165057 59 185 2.0 9.0 0.00 0.04 0.04 69 1013.6
20260509164557 59 184 1.0 7.0 0.00 0.04 0.04 68 1013.5
20260509164059 60 181 1.0 6.0 0.00 0.04 0.04 68 1013.5
20260509163600 60 199 1.0 7.0 0.00 0.04 0.04 68 1013.6
20260509163124 60 113 1.0 7.0 0.00 0.04 0.04 69 1013.7
20260509162559 60 0 1.0 5.0 0.00 0.04 0.04 68 1013.6
20260509162101 60 161 1.0 5.0 0.00 0.04 0.04 67 1013.5
20260509161600 60 180 1.0 7.0 0.00 0.04 0.04 68 1013.6
20260509161103 60 202 0.0 7.0 0.00 0.04 0.04 66 1013.7
20260509160602 61 149 3.0 7.0 0.00 0.04 0.04 68 1013.8
20260509155604 60 118 3.0 8.0 0.00 0.04 0.04 69 1013.9
20260509155059 60 109 1.0 5.0 0.00 0.04 0.04 70 1014.0
20260509154559 61 59 1.0 5.0 0.00 0.04 0.04 70 1014.1
20260509154100 61 0 1.0 6.0 0.00 0.04 0.04 69 1014.1
20260509153603 61 0 1.0 7.0 0.00 0.04 0.04 69 1014.1
20260509153101 61 88 2.0 9.0 0.00 0.04 0.04 72 1014.1
20260509152559 60 132 4.0 9.0 0.00 0.04 0.04 72 1014.1
20260509152100 59 90 2.0 8.0 0.00 0.04 0.04 73 1014.2
20260509151605 59 109 1.0 6.0 0.00 0.04 0.04 74 1014.2
20260509151100 59 205 1.0 7.0 0.00 0.04 0.04 75 1014.2
20260509150601 58 90 2.0 8.0 0.00 0.04 0.04 76 1014.4
20260509150126 58 125 3.0 8.0 0.00 0.04 0.04 77 1014.5
20260509145600 57 115 3.0 9.0 0.00 0.04 0.04 77 1014.4
20260509145102 56 110 4.0 9.0 0.00 0.04 0.04 77 1014.3
20260509144708 56 118 3.0 8.0 0.00 0.04 0.04 79 1014.2
20260509144102 56 96 3.0 8.0 0.00 0.04 0.04 80 1014.2
20260509143600 56 119 2.0 6.0 0.00 0.04 0.04 82 1014.2
20260509143059 56 0 2.0 7.0 0.00 0.04 0.04 83 1014.4
20260509142604 55 85 3.0 7.0 0.00 0.04 0.04 83 1014.4
20260509142101 55 111 2.0 8.0 0.00 0.04 0.04 84 1014.6
20260509141601 54 61 1.0 8.0 0.00 0.04 0.04 85 1014.7
20260509141100 54 107 2.0 6.0 0.00 0.04 0.04 86 1014.8
20260509140600 53 103 1.0 4.0 0.00 0.04 0.04 86 1015.0
20260509135602 52 102 2.0 5.0 0.00 0.04 0.04 88 1014.8
20260509135101 52 89 2.0 5.0 0.00 0.04 0.04 87 1014.9
20260509134600 51 101 2.0 4.0 0.00 0.04 0.04 88 1015.0
20260509134100 51 0 1.0 3.0 0.00 0.04 0.04 89 1015.2
20260509133603 51 96 1.0 4.0 0.00 0.04 0.04 89 1015.4
20260509133100 51 89 1.0 4.0 0.00 0.04 0.04 89 1015.3
20260509132601 50 84 2.0 4.0 0.00 0.04 0.04 90 1015.4
20260509132059 50 106 0.0 3.0 0.00 0.04 0.04 90 1015.4
20260509131559 50 0 0.0 4.0 0.00 0.04 0.04 91 1015.3
20260509131057 49 62 1.0 4.0 0.00 0.04 0.04 92 1015.3
20260509130559 48 63 1.0 3.0 0.01 0.04 0.04 92 1015.3
20260509130107 48 77 1.0 3.0 0.01 0.04 0.04 92 1015.4
20260509125600 48 75 1.0 3.0 0.01 0.04 0.04 92 1015.4
20260509125059 47 76 1.0 3.0 0.01 0.04 0.04 92 1015.4
20260509124612 47 67 1.0 3.0 0.01 0.04 0.04 92 1015.5
20260509124059 47 0 0.0 0.0 0.01 0.04 0.04 92 1015.6
20260509123559 47 0 0.0 0.0 0.01 0.04 0.04 92 1015.5
20260509123102 46 0 0.0 0.0 0.01 0.04 0.04 92 1015.4
20260509122600 46 0 0.0 2.0 0.02 0.04 0.04 92 1015.3
20260509122100 46 0 0.0 2.0 0.02 0.04 0.04 92 1015.2
20260509121559 46 0 0.0 3.0 0.03 0.04 0.04 92 1015.1
20260509121058 45 0 0.0 3.0 0.03 0.04 0.04 92 1015.2
20260509120558 45 75 1.0 3.0 0.02 0.03 0.03 92 1015.3
20260509120107 45 0 0.0 2.0 0.03 0.03 0.03 92 1015.3
20260509115559 44 0 0.0 0.0 0.03 0.03 0.03 92 1015.3
20260509115059 44 0 0.0 0.0 0.03 0.03 0.03 91 1015.4
20260509114604 44 0 0.0 0.0 0.03 0.03 0.03 91 1015.5
20260509114100 43 0 0.0 0.0 0.03 0.03 0.03 91 1015.6
20260509113600 43 0 0.0 0.0 0.03 0.03 0.03 91 1015.6
20260509113058 43 0 0.0 0.0 0.03 0.03 0.03 91 1015.8
20260509112559 43 0 0.0 0.0 0.02 0.02 0.02 90 1016.0
20260509112101 43 0 0.0 0.0 0.02 0.02 0.02 90 1016.0
20260509111559 42 0 0.0 0.0 0.01 0.01 0.01 90 1015.8
20260509111059 42 0 0.0 0.0 0.01 0.01 0.01 90 1015.9
20260509110602 42 0 0.0 0.0 0.01 0.01 0.01 89 1015.9
20260509105600 42 0 0.0 0.0 0.00 0.00 0.00 89 1015.7
20260509105100 42 0 0.0 0.0 0.00 0.00 0.00 89 1015.7
20260509104600 42 0 0.0 0.0 0.00 0.00 0.00 88 1015.5
20260509104100 42 0 0.0 0.0 0.00 0.00 0.00 88 1015.5
20260509103557 42 0 0.0 0.0 0.00 0.00 0.00 88 1015.5
20260509103057 42 0 0.0 0.0 0.00 0.00 0.00 87 1015.5
20260509102559 42 0 0.0 0.0 0.00 0.00 0.00 88 1015.4
20260509102102 42 0 0.0 0.0 0.00 0.00 0.00 88 1015.3
20260509101558 43 0 0.0 0.0 0.00 0.00 0.00 88 1015.3
20260509101203 42 0 0.0 0.0 0.00 0.00 0.00 88 1015.1
20260509100600 42 0 0.0 0.0 0.00 0.00 0.00 89 1014.9
20260509100105 42 0 0.0 0.0 0.00 0.00 0.00 89 1014.7
20260509095601 42 0 0.0 0.0 0.00 0.00 0.00 89 1014.6
20260509095059 42 0 0.0 0.0 0.00 0.00 0.00 89 1014.4
20260509094559 41 0 0.0 0.0 0.00 0.00 0.00 89 1014.4
20260509094100 41 0 0.0 0.0 0.00 0.00 0.00 89 1014.4
20260509093601 41 0 0.0 0.0 0.00 0.00 0.00 89 1014.3
20260509093101 41 0 0.0 0.0 0.00 0.00 0.00 89 1014.3
20260509092603 41 0 0.0 0.0 0.00 0.00 0.00 89 1014.4
20260509092100 40 0 0.0 0.0 0.00 0.00 0.00 89 1014.5
20260509091600 40 0 0.0 0.0 0.00 0.00 0.00 88 1014.4
20260509091102 39 0 0.0 0.0 0.00 0.00 0.00 88 1014.4
20260509090601 39 0 0.0 0.0 0.00 0.00 0.00 88 1014.5
20260509090108 39 0 0.0 0.0 0.00 0.00 0.00 88 1014.4
20260509085600 39 0 0.0 0.0 0.00 0.00 0.00 88 1014.3
20260509085101 39 0 0.0 0.0 0.00 0.00 0.00 87 1014.2
20260509084603 39 0 0.0 0.0 0.00 0.00 0.00 87 1014.1
20260509084100 39 0 0.0 0.0 0.00 0.00 0.00 87 1014.0
20260509083600 39 0 0.0 0.0 0.00 0.00 0.00 87 1014.1
20260509083102 38 0 0.0 0.0 0.00 0.00 0.00 87 1014.2
20260509082600 38 0 0.0 0.0 0.00 0.00 0.00 87 1014.3
20260509082100 38 0 0.0 0.0 0.00 0.00 0.00 86 1014.4
20260509081600 38 0 0.0 0.0 0.00 0.00 0.00 86 1014.5
20260509081100 38 0 0.0 0.0 0.00 0.00 0.00 86 1014.6
20260509080604 38 0 0.0 0.0 0.00 0.00 0.00 86 1014.6
20260509080101 38 0 0.0 0.0 0.00 0.00 0.00 86 1014.6
20260509075600 38 0 0.0 0.0 0.00 0.00 0.00 86 1014.6
20260509075101 38 0 0.0 0.0 0.00 0.00 0.00 86 1014.6
20260509074608 38 0 0.0 0.0 0.00 0.00 0.00 86 1014.6
20260509074101 38 0 0.0 0.0 0.00 0.00 0.00 86 1014.7
20260509073601 38 0 0.0 0.0 0.00 0.00 0.00 86 1014.8
20260509073100 39 0 0.0 0.0 0.00 0.00 0.00 85 1014.7
20260509072600 39 0 0.0 0.0 0.00 0.00 0.00 85 1014.7
20260509072100 39 0 0.0 0.0 0.00 0.00 0.00 85 1014.7
20260509071624 39 0 0.0 0.0 0.00 0.00 0.00 85 1014.7
20260509071102 39 0 0.0 0.0 0.00 0.00 0.00 85 1014.7
20260509070603 39 0 0.0 0.0 0.00 0.00 0.00 85 1014.8
20260509065642 39 0 0.0 0.0 0.00 0.00 0.00 84 1014.9
20260509065101 39 0 0.0 0.0 0.00 0.00 0.00 84 1014.7
20260509064606 39 0 0.0 0.0 0.00 0.00 0.00 84 1014.7
20260509064058 39 0 0.0 0.0 0.00 0.00 0.00 84 1014.6
20260509063600 39 0 0.0 0.0 0.00 0.00 0.00 84 1014.6
20260509063059 39 0 0.0 0.0 0.00 0.00 0.00 84 1014.6
20260509062559 39 0 0.0 0.0 0.00 0.00 0.00 84 1014.6
20260509062059 39 0 0.0 0.0 0.00 0.00 0.00 84 1014.6
20260509061602 39 0 0.0 0.0 0.00 0.00 0.00 84 1014.6
20260509061101 39 0 0.0 0.0 0.00 0.00 0.00 84 1014.6
20260509060557 39 0 0.0 0.0 0.00 0.00 0.00 83 1014.5
20260509060106 39 0 0.0 0.0 0.00 0.00 0.00 83 1014.5
20260509055600 39 0 0.0 0.0 0.00 0.00 0.00 83 1014.6
20260509055103 39 0 0.0 0.0 0.00 0.00 0.00 83 1014.6
20260509054613 39 0 0.0 0.0 0.00 0.00 0.00 82 1014.6
20260509054059 39 0 0.0 0.0 0.00 0.00 0.00 82 1014.6
20260509053557 40 0 0.0 0.0 0.00 0.00 0.00 82 1014.7
20260509053105 40 0 0.0 0.0 0.00 0.00 0.00 81 1014.5
20260509052600 40 0 0.0 0.0 0.00 0.00 0.00 82 1014.6
20260509052059 40 0 0.0 0.0 0.00 0.00 0.00 81 1014.6
20260509051558 40 0 0.0 0.0 0.00 0.00 0.00 81 1014.5
20260509051101 40 0 0.0 0.0 0.00 0.00 0.00 81 1014.5
20260509050557 40 0 0.0 0.0 0.00 0.00 0.00 81 1014.4
20260509050101 40 0 0.0 0.0 0.00 0.00 0.00 81 1014.5
20260509045557 41 0 0.0 0.0 0.00 0.00 0.00 80 1014.6
20260509045100 41 0 0.0 0.0 0.00 0.00 0.00 80 1014.6
20260509044600 41 0 0.0 0.0 0.00 0.00 0.00 80 1014.5
20260509044100 41 0 0.0 0.0 0.00 0.00 0.00 79 1014.5
20260509043600 41 0 0.0 0.0 0.00 0.00 0.00 78 1014.6
20260509043110 42 0 0.0 0.0 0.00 0.00 0.00 78 1014.5
20260509042558 42 0 0.0 0.0 0.00 0.00 0.00 78 1014.4
20260509042100 42 0 0.0 0.0 0.00 0.00 0.00 78 1014.5
20260509041557 42 0 0.0 0.0 0.00 0.00 0.00 77 1014.3
20260509041057 42 0 0.0 0.0 0.00 0.00 0.00 77 1014.3
20260509040557 42 0 0.0 0.0 0.00 0.00 0.00 77 1014.3
20260509040059 43 0 0.0 0.0 0.00 0.00 0.00 76 1014.1
20260509035559 43 0 0.0 0.0 0.00 0.00 0.00 76 1014.2
20260509035058 43 0 0.0 0.0 0.00 0.00 0.00 75 1014.2
20260509034603 43 0 0.0 0.0 0.00 0.00 0.00 75 1014.2
20260509034057 43 0 0.0 0.0 0.00 0.00 0.00 75 1014.0
20260509033557 44 0 0.0 0.0 0.00 0.00 0.00 75 1014.0
20260509033058 44 0 0.0 0.0 0.00 0.00 0.00 72 1014.0
20260509032556 44 0 0.0 0.0 0.00 0.00 0.00 72 1014.1
20260509032059 44 0 0.0 0.0 0.00 0.00 0.00 72 1014.1
20260509031602 44 0 0.0 0.0 0.00 0.00 0.00 73 1014.2
20260509031100 44 0 0.0 0.0 0.00 0.00 0.00 74 1014.2
20260509030557 44 0 0.0 0.0 0.00 0.00 0.00 74 1014.2
20260509030057 44 0 0.0 0.0 0.00 0.00 0.00 74 1014.1
20260509025559 45 0 0.0 0.0 0.00 0.00 0.00 73 1014.1
20260509025059 45 0 0.0 0.0 0.00 0.00 0.00 72 1014.1
20260509024556 45 0 0.0 0.0 0.00 0.00 0.00 71 1014.0
20260509024056 45 0 0.0 0.0 0.00 0.00 0.00 69 1014.0
20260509023557 46 0 0.0 0.0 0.00 0.00 0.00 69 1014.0
20260509023101 46 0 0.0 0.0 0.00 0.00 0.00 69 1013.9
20260509022557 46 0 0.0 0.0 0.00 0.00 0.00 69 1013.8
20260509022100 46 0 0.0 0.0 0.00 0.00 0.00 68 1013.7
20260509021557 46 0 0.0 0.0 0.00 0.00 0.00 67 1013.6
20260509021056 46 0 0.0 0.0 0.00 0.00 0.00 68 1013.6
20260509020559 46 0 0.0 0.0 0.00 0.00 0.00 69 1013.5
20260509020100 46 0 0.0 0.0 0.00 0.00 0.00 70 1013.5
20260509015557 47 0 0.0 0.0 0.00 0.00 0.00 69 1013.4
20260509015100 47 0 0.0 0.0 0.00 0.00 0.00 69 1013.3
20260509014559 47 0 0.0 0.0 0.00 0.00 0.00 69 1013.4
20260509014101 47 0 0.0 0.0 0.00 0.00 0.00 68 1013.3
20260509013556 48 0 0.0 0.0 0.00 0.00 0.00 66 1013.2
20260509013115 48 0 0.0 0.0 0.00 0.00 0.00 63 1013.2
20260509012600 48 0 0.0 0.0 0.00 0.00 0.00 63 1013.1
20260509012059 48 0 0.0 0.0 0.00 0.00 0.00 65 1013.1
20260509011559 49 0 0.0 1.0 0.00 0.00 0.00 61 1012.9
20260509011055 49 0 0.0 1.0 0.00 0.00 0.00 62 1012.8
20260509010557 49 0 0.0 2.0 0.00 0.00 0.00 59 1012.7
20260509010100 50 0 0.0 2.0 0.00 0.00 0.00 57 1012.6
20260509005600 50 0 0.0 2.0 0.00 0.00 0.00 57 1012.4
20260509005058 50 0 0.0 2.0 0.00 0.00 0.00 57 1012.4
20260509004600 50 0 1.0 2.0 0.00 0.00 0.00 57 1012.4
20260509004059 50 225 0.0 2.0 0.00 0.00 0.00 59 1012.3
20260509003600 50 0 1.0 3.0 0.00 0.00 0.00 57 1012.2
20260509003102 50 230 1.0 3.0 0.00 0.00 0.00 58 1012.0
20260509002558 51 230 1.0 3.0 0.00 0.00 0.00 55 1012.0
20260509002056 51 0 0.0 3.0 0.00 0.00 0.00 54 1011.8
20260509001600 51 227 0.0 3.0 0.00 0.00 0.00 54 1011.8
20260509001056 51 0 0.0 3.0 0.00 0.00 0.00 53 1011.7
20260509000559 52 214 0.0 2.0 0.00 0.00 0.00 55 1011.6
20260509000057 52 0 0.0 2.0 0.00 0.00 0.00 52 1011.4